Tender opportunities

Browse the list of tender opportunities and sign up for notifications to stay up to date. To download contracting information posted on CanadaBuys and contract history: 


Notice categories:

7 of 7
List of tender notices. The columns are sortable in ascending and descending order.
Title Category Open/amendment date Closing date Organization
ESDC Benefits Delivery Modernization, Contact Centre Solution RFI -… Services 2022/11/10 2023/01/11 Shared Services Canada
Workplace Technology Devices Printing Products - Invitation to Qualify (… Goods, Services, Services related to goods 2016/08/31
Amended
2016/09/02 Shared Services Canada
Industry Engagement, Workplace Technology Devices Printing Products and… Goods, Services, Services related to goods 2016/07/07
Amended
2016/08/29 Shared Services Canada
PORTABLE DATA ENTRY TERMINALS Services related to goods, Goods 2015/12/23 2016/01/06 Shared Services Canada
PORTABLE DATA ENTRY TERMINALS Services related to goods, Goods 2015/11/16
Amended
2015/11/23 Shared Services Canada
DATA CENTRE CO-LOCATION SERVICES (DCCS) Services 2014/02/27
Amended
2014/03/03 Shared Services Canada
NATIONAL SECURITY EXCEPTION Services related to goods, Goods, Services 2013/05/30
Amended
2012/09/13 Shared Services Canada
Displaying 1 - 10 of
10 of 30
30
List of award notices. The columns are sortable in ascending and descending order.
Title Category Award/amendment date Closing date Organization
Genset on CCGS Traverse Services related to goods 2022/07/05 N/A Fisheries and Oceans Canada
3-Roll Mill Goods 2022/03/03 N/A National Research Council Canada
UV laser wire marker Goods 2022/02/28 N/A Department of National Defence
YTTERBIUM PICOSECOND FIBER LASER Services 2022/01/20 N/A Department of National Defence
Air Sampling Canister Assemblies Goods 2021/11/16 N/A Natural Resources Canada
Kitchen Equipment and Appliances Goods 2021/11/10 N/A Fisheries and Oceans Canada
Wet Dust Collector Goods 2021/11/10 N/A Department of National Defence
Mobile Wash and Reclaim Systems Goods 2021/10/08 N/A Parks Canada
Temperature, relative humidity and flow control system Goods 2021/04/30 N/A Department of National Defence
Broad Spectrum Linear LED Lights Goods 2021/02/01 N/A Agriculture and Agri-Food Canada
50 of 55
List of contract history information. The columns are sortable in ascending and descending order.
Company name Contract number Organization Award/amendment date Contract / Amendment value
Mohammad Afshin F2599-210528/001/MD Fisheries and Oceans Canada 2022/07/05 CAD 53,569.00
Mohammad Afshin 31184-222430/001/HN National Research Council Canada 2022/03/03 CAD 84,000.00
Mohammad Afshin W3474-220302/001/TOR Department of National Defence 2022/02/28 CAD 136,662.00
Mohammad Afshin 23584-220212/001/PV Natural Resources Canada 2021/11/16 CAD 57,425.00
Mohammad Afshin F521A-210367/001/PD Fisheries and Oceans Canada 2021/11/10 CAD 46,640.00
Mohammad Afshin W355B-228302/001/HAL Department of National Defence 2021/11/10 CAD 33,885.00
Mohammad Afshin 01586-200156/001/CAL Agriculture and Agri-Food Canada 2021/03/29 CAD 55,377.00
Mohammad Afshin 01586-200156/001/CAL Agriculture and Agri-Food Canada 2021/02/04 CAD 55,377.00
Mohammad Afshin 01586-200156/001/CAL Agriculture and Agri-Food Canada 2021/02/01 CAD 55,377.00
Mohammad Afshin W3555-212934/001/VIC Department of National Defence 2021/01/29 CAD 56,770.00
Mohammad Afshin W0125-21WR31/001/KIN Department of National Defence 2021/01/14 CAD 60,249.00
Mohammad Afshin W7719-215536/001/KIN Department of National Defence 2021/01/12 CAD 43,004.00
Mohammad Afshin W0125-21WR31/001/KIN Department of National Defence 2021/01/05 CAD 60,249.00
Mohammad Afshin 5P421-202254/001/CAL Parks Canada 2022/03/01 CAD 196,245.00
Mohammad Afshin W0046-220022/001/KIN Department of National Defence 2022/01/20 CAD 110,966.00
Mohammad Afshin 5P421-202254/001/CAL Parks Canada 2021/10/08 CAD 196,245.00
Mohammad Afshin W7702-216273/001/STN Department of National Defence 2021/04/30 CAD 35,532.00
Mohammad Afshin W7702-216273/001/STN Department of National Defence 2021/04/30 CAD 35,532.00
Mohammad Hussain F1700-195680/001/PWY Fisheries and Oceans Canada 2020/10/26 CAD 37,744.00
Mohammad Hussain EZ899-202775/001/PWY Public Works and Government Services… 2020/04/29 CAD -119,193.00
Mohammad Hussain EZ899-202775/001/PWY Public Works and Government Services… 2020/03/24 CAD 398,807.00
Mohammad Hussain K4A22-200368/001/PWY Environment Canada 2020/03/04 CAD 623,000.00
Mohammad Hussain EZ899-202775/001/PWY Public Works and Government Services… 2020/02/28 CAD 518,000.00
Mohammad Hussain EZ899-192509/001/PWY Public Works and Government Services… 2020/02/26 CAD 5,040.00
Mohammad Hussain F1700-195680/001/PWY Fisheries and Oceans Canada 2019/06/17 CAD 502,000.00
Mohammad Hussain EZ899-192509/001/PWY Public Works and Government Services… 2019/06/11 CAD 73,629.00
Mohammad Hussain EZ899-192509/001/PWY Public Works and Government Services… 2019/03/07 CAD 723,000.00
Mohammad Hussain EZ899-182079/001/PWY Public Works and Government Services… 2018/12/18 CAD 1,302.00
Mohammad Hussain EZ899-182079/001/PWY Public Works and Government Services… 2018/10/09 CAD 53,002.00
Mohammad Hussain EZ899-180045/001/PWY Public Works and Government Services… 2018/08/22 CAD 17,738.00
Mohammad Hussain EZ899-182079/001/PWY Public Works and Government Services… 2018/07/12 CAD -341.00
Mohammad Hussain EZ899-182079/001/PWY Public Works and Government Services… 2018/06/27 CAD 105,164.00
Mohammad Hussain EZ899-180045/001/PWY Public Works and Government Services… 2018/06/26 CAD 666,609.00
Mohammad Hussain EZ899-180045/001/PWY Public Works and Government Services… 2018/06/05 CAD 666,609.00
Mohammad Hussain EZ899-180045/001/PWY Public Works and Government Services… 2018/04/17 CAD 666,609.00
Mohammad Hussain EZ899-180045/001/PWY Public Works and Government Services… 2018/03/28 CAD 13,000.00
Mohammad Hussain EZ899-173362/001/PWY Public Works and Government Services… 2018/02/13 CAD 5,850.00
Mohammad Hussain EZ899-182079/001/PWY Public Works and Government Services… 2018/02/09 CAD 627,000.00
Mohammad Hussain EZ899-180045/001/PWY Public Works and Government Services… 2018/02/06 CAD 8,211.00
Mohammad Hussain EZ899-173362/001/PWY Public Works and Government Services… 2017/11/27 CAD 36,470.00
Mohammad Hussain EZ899-180045/001/PWY Public Works and Government Services… 2017/09/21 CAD 518,000.00
Mohammad Hussain EZ899-171601/001/PWY Public Works and Government Services… 2017/08/25 CAD 3,600.00
Mohammad Hussain EZ899-180498/001/PWY Public Works and Government Services… 2017/08/18 CAD 97,500.00
Mohammad Hussain EZ899-171601/001/PWY Public Works and Government Services… 2017/08/16 CAD 58,450.00
Mohammad Hussain EZ899-180124/001/PWY Public Works and Government Services… 2017/06/21 CAD 327,000.00
Mohammad Hussain EZ899-171601/001/PWY Public Works and Government Services… 2017/01/18 CAD 502,000.00
Mohammad Hussain F1700-195680/001/PWY Fisheries and Oceans Canada 2020/06/25 CAD 31,300.00
Mohammad Hussain EZ899-192509/001/PWY Public Works and Government Services… 2019/10/15 CAD 66,227.00
Mohammad Hussain EZ899-192509/001/PWY Public Works and Government Services… 2019/07/31 CAD 26,700.00
Mohammad Hussain EZ899-192509/001/PWY Public Works and Government Services… 2019/05/09 CAD 11,803.00

Useful links

Support

Contact us directly, or find your answers using resource guides.

Date modified: